This demonstration page uses our WeatherBlox Daily Observations layout. Learn more.

Left ArrowRight Arrow

Hourly Observations for November 2, 2015

Temp ( °F °C ) Dew Point ( °F °C ) Humidity (%) Winds ( mph kmh ) Pressure ( in mb ) Visibility ( mi km ) Precip ( " mm )
12:53 am 00:53 Cloudy 60 15.6 56 13.3 86 86 Calm 29.88 1012 10 16 0.00 0.00
1:01 am 01:01 Cloudy 61 16.1 56 13.3 84 84 Calm 29.88 1012 10 16 0.00 0.00
1:53 am 01:53 Mostly Cloudy 60 15.6 54 12.2 80 80 S 10 17 29.87 1011 10 16 0.00 0.00
2:14 am 02:14 Mostly Cloudy 61 16 54 12 77 77 S 13 20 29.88 1012 10 16 0.00 0.00
2:53 am 02:53 Clear 58 14.4 52 11.1 81 81 S 9 15 29.86 1011 10 16 0.00 0.00
3:53 am 03:53 Clear 57 13.9 51 10.6 81 81 SE 7 11 29.84 1010 10 16 0.00 0.00
4:53 am 04:53 Mostly Cloudy 56 13.3 51 10.6 84 84 SE 8 13 29.82 1010 10 16 0.00 0.00
5:53 am 05:53 Clear 55 12.8 50 10 83 83 SE 5 7 29.82 1010 10 16 0.00 0.00
6:53 am 06:53 Cloudy 55 12.8 50 10 83 83 WNW 3 6 29.83 1010 10 16 0.00 0.00
7:53 am 07:53 Cloudy 56 13.3 51 10.6 84 84 NE 5 7 29.82 1010 10 16 0.00 0.03
8:53 am 08:53 Mostly Cloudy 56 13.3 51 10.6 84 84 NNE 6 9 29.83 1010 10 16 0.00 0.00
9:04 am 09:04 Mostly Cloudy 55 13 52 11 88 88 NE 7 11 29.83 1010 10 16 0.00 0.00
9:53 am 09:53 Cloudy 57 13.9 51 10.6 81 81 E 5 7 29.83 1010 10 16 0.00 0.00
10:22 am 10:22 Partly Cloudy 57 14 52 11 82 82 Calm 29.83 1010 10 16 0.00 0.00
10:53 am 10:53 Sunny 61 16.1 51 10.6 70 70 Calm 29.80 1009 10 16 0.00 0.00
11:53 am 11:53 Partly Cloudy 65 18.3 48 8.9 54 54 VRB 3 6 29.76 1008 10 16 0.00 0.00
12:44 pm 12:44 Partly Cloudy with Nearby Thunderstorms 68 20 45 7 43 43 N 9 15 29.74 1007 10 16 0.00 0.00
12:53 pm 12:53 Partly Cloudy with Nearby Thunderstorms 67 19.4 43 6.1 42 42 VRB 3 6 29.73 1007 10 16 0.00 0.00
1:01 pm 13:01 Partly Cloudy 67 19.4 43 6.1 42 42 N 6 9 29.74 1007 10 16 0.00 0.00
1:53 pm 13:53 Mostly Cloudy 64 17.8 44 6.7 48 48 W 7 11 29.73 1007 10 16 0.00 0.00
2:53 pm 14:53 Mostly Cloudy 67 19.4 39 3.9 36 36 WSW 6 9 29.72 1007 10 16 0.00 0.00
3:53 pm 15:53 Mostly Cloudy with Nearby Thunderstorms 65 18.3 39 3.9 39 39 VRB 6 9 29.72 1007 10 16 0.00 0.00
4:15 pm 16:15 Mostly Cloudy with Thunderstorms 62 16.7 40 4.4 44 44 SSE 15 24 29.74 1007 10 16 0.00 0.00
4:28 pm 16:28 Partly Cloudy with Nearby Thunderstorms 63 17 39 4 42 42 S 10 17 29.74 1007 10 16 0.00 0.00
4:37 pm 16:37 Mostly Sunny 61 16.1 39 3.9 44 44 SSW 8 13 29.74 1007 10 16 0.00 0.00
4:53 pm 16:53 Sunny 61 16.1 39 3.9 44 44 Calm 29.72 1006 10 16 0.00 0.00
5:53 pm 17:53 Clear 55 12.8 41 5 59 59 ENE 5 7 29.75 1007 10 16 0.00 0.00
6:53 pm 18:53 Clear 53 11.7 41 5 64 64 WNW 8 13 29.76 1008 10 16 0.00 0.00
7:53 pm 19:53 Clear 54 12.2 38 3.3 55 55 NW 5 7 29.77 1008 10 16 0.00 0.00
8:53 pm 20:53 Clear 50 10 39 3.9 66 66 Calm 29.79 1009 10 16 0.00 0.00
9:53 pm 21:53 Clear 50 10 37 2.8 61 61 N 7 11 29.80 1009 10 16 0.00 0.00
10:53 pm 22:53 Clear 56 13.3 35 1.7 46 46 N 6 9 29.80 1009 10 16 0.00 0.00
11:53 pm 23:53 Clear 52 11.1 36 2.2 55 55 NNW 5 7 29.81 1010 10 16 0.00 0.00

Powered by AerisWeather